owner,sensor,date,latitude,longitude,vertical_datum,wind_speed,wind_to_direction,wind_speed_of_gust,qcFlag 
DISL,ioos:station:DISL:MBLA:1,2017-05-01T00:00:00Z,30.4367,-88.0117,14.2,5.18,127.7,-999.0,'1111122,1111122,1111122' 
DISL,ioos:station:DISL:MBLA:1,2017-05-01T00:30:00Z,30.4367,-88.0117,14.2,4.77,81.4,-999.0,'1111122,1111122,1111122' 
DISL,ioos:station:DISL:MBLA:1,2017-05-01T01:00:00Z,30.4367,-88.0117,14.2,5.18,58.29,-999.0,'1111122,1111122,1111122' 
DISL,ioos:station:DISL:MBLA:1,2017-05-01T01:30:00Z,30.4367,-88.0117,14.2,5.86,30.15,-999.0,'1111122,1111122,1111122' 
DISL,ioos:station:DISL:MBLA:1,2017-05-01T02:00:00Z,30.4367,-88.0117,14.2,9.09,75.32,-999.0,'1111122,1111122,1111122' 
DISL,ioos:station:DISL:MBLA:1,2017-05-01T02:30:00Z,30.4367,-88.0117,14.2,12.52,115.0,-999.0,'1111122,1111122,1111122' 
DISL,ioos:station:DISL:MBLA:1,2017-05-01T03:00:00Z,30.4367,-88.0117,14.2,15.37,126.6,-999.0,'1111122,1111122,1111122' 
DISL,ioos:station:DISL:MBLA:1,2017-05-01T03:30:00Z,30.4367,-88.0117,14.2,15.42,128.4,-999.0,'1111122,1111122,1111122' 
DISL,ioos:station:DISL:MBLA:1,2017-05-01T04:00:00Z,30.4367,-88.0117,14.2,13.79,133.5,-999.0,'1111122,1111122,1111122' 
DISL,ioos:station:DISL:MBLA:1,2017-05-01T04:30:00Z,30.4367,-88.0117,14.2,12.17,135.7,-999.0,'1111122,1111122,1111122' 
DISL,ioos:station:DISL:MBLA:1,2017-05-01T05:00:00Z,30.4367,-88.0117,14.2,16.07,152.2,-999.0,'1111122,1111122,1111122' 
DISL,ioos:station:DISL:MBLA:1,2017-05-01T05:30:00Z,30.4367,-88.0117,14.2,16.48,160.9,-999.0,'1111122,1111122,1111122' 
DISL,ioos:station:DISL:MBLA:1,2017-05-01T06:00:00Z,30.4367,-88.0117,14.2,13.61,167.4,-999.0,'1111122,1111122,1111122' 
DISL,ioos:station:DISL:MBLA:1,2017-05-01T06:30:00Z,30.4367,-88.0117,14.2,17.59,161.3,-999.0,'1111122,1111122,1111122' 
DISL,ioos:station:DISL:MBLA:1,2017-05-01T07:00:00Z,30.4367,-88.0117,14.2,17.65,159.6,-999.0,'1111122,1111122,1111122' 
DISL,ioos:station:DISL:MBLA:1,2017-05-01T07:30:00Z,30.4367,-88.0117,14.2,11.22,161.3,-999.0,'1111122,1111122,1111122' 
DISL,ioos:station:DISL:MBLA:1,2017-05-01T08:00:00Z,30.4367,-88.0117,14.2,13.93,171.0,-999.0,'1111122,1111122,1111122' 
DISL,ioos:station:DISL:MBLA:1,2017-05-01T08:30:00Z,30.4367,-88.0117,14.2,14.1,264.0,-999.0,'1111122,1111122,1111122' 
DISL,ioos:station:DISL:MBLA:1,2017-05-01T09:00:00Z,30.4367,-88.0117,14.2,12.13,321.0,-999.0,'1111122,1111122,1111122' 
DISL,ioos:station:DISL:MBLA:1,2017-05-01T09:30:00Z,30.4367,-88.0117,14.2,10.21,348.4,-999.0,'1111122,1111122,1111122' 
DISL,ioos:station:DISL:MBLA:1,2017-05-01T10:00:00Z,30.4367,-88.0117,14.2,11.24,341.3,-999.0,'1111122,1111122,1111122' 
DISL,ioos:station:DISL:MBLA:1,2017-05-01T10:30:00Z,30.4367,-88.0117,14.2,9.23,0.146,-999.0,'1111122,1111122,1111122' 
DISL,ioos:station:DISL:MBLA:1,2017-05-01T11:00:00Z,30.4367,-88.0117,14.2,6.52,8.14,-999.0,'1111122,1111122,1111122' 
DISL,ioos:station:DISL:MBLA:1,2017-05-01T11:30:00Z,30.4367,-88.0117,14.2,4.94,26.79,-999.0,'1111122,1111122,1111122' 
DISL,ioos:station:DISL:MBLA:1,2017-05-01T12:00:00Z,30.4367,-88.0117,14.2,4.6,19.82,-999.0,'1111122,1111122,1111122' 
DISL,ioos:station:DISL:MBLA:1,2017-05-01T12:30:00Z,30.4367,-88.0117,14.2,5.19,353.5,-999.0,'1111122,1111122,1111122' 
DISL,ioos:station:DISL:MBLA:1,2017-05-01T13:00:00Z,30.4367,-88.0117,14.2,5.92,345.4,-999.0,'1111122,1111122,1111122' 
DISL,ioos:station:DISL:MBLA:1,2017-05-01T13:30:00Z,30.4367,-88.0117,14.2,8.89,338.0,-999.0,'1111122,1111122,1111122' 
DISL,ioos:station:DISL:MBLA:1,2017-05-01T14:00:00Z,30.4367,-88.0117,14.2,7.16,339.4,-999.0,'1111122,1111122,1111122' 
DISL,ioos:station:DISL:MBLA:1,2017-05-01T14:30:00Z,30.4367,-88.0117,14.2,5.6,344.6,-999.0,'1111122,1111122,1111122' 
DISL,ioos:station:DISL:MBLA:1,2017-05-01T15:00:00Z,30.4367,-88.0117,14.2,5.31,345.4,-999.0,'1111122,1111122,1111122' 
DISL,ioos:station:DISL:MBLA:1,2017-05-01T15:30:00Z,30.4367,-88.0117,14.2,6.33,345.6,-999.0,'1111122,1111122,1111122' 
DISL,ioos:station:DISL:MBLA:1,2017-05-01T16:00:00Z,30.4367,-88.0117,14.2,5.16,341.6,-999.0,'1111122,1111122,1111122' 
DISL,ioos:station:DISL:MBLA:1,2017-05-01T16:30:00Z,30.4367,-88.0117,14.2,4.86,342.8,-999.0,'1111122,1111122,1111122' 
DISL,ioos:station:DISL:MBLA:1,2017-05-01T17:00:00Z,30.4367,-88.0117,14.2,3.73,17.58,-999.0,'1111122,1111122,1111122' 
DISL,ioos:station:DISL:MBLA:1,2017-05-01T17:30:00Z,30.4367,-88.0117,14.2,2.02,70.69,-999.0,'1111122,1111122,1111122' 
DISL,ioos:station:DISL:MBLA:1,2017-05-01T18:00:00Z,30.4367,-88.0117,14.2,2.65,110.1,-999.0,'1111122,1111122,1111122' 
DISL,ioos:station:DISL:MBLA:1,2017-05-01T18:30:00Z,30.4367,-88.0117,14.2,2.92,114.2,-999.0,'1111122,1111122,1111122' 
DISL,ioos:station:DISL:MBLA:1,2017-05-01T19:00:00Z,30.4367,-88.0117,14.2,2.92,110.6,-999.0,'1111122,1111122,1111122' 
DISL,ioos:station:DISL:MBLA:1,2017-05-01T19:30:00Z,30.4367,-88.0117,14.2,1.72,143.7,-999.0,'1111122,1111122,1111122' 
DISL,ioos:station:DISL:MBLA:1,2017-05-01T20:00:00Z,30.4367,-88.0117,14.2,1.9,172.8,-999.0,'1111122,1111122,1111122' 
DISL,ioos:station:DISL:MBLA:1,2017-05-01T20:30:00Z,30.4367,-88.0117,14.2,2.96,183.0,-999.0,'1111122,1111122,1111122' 
DISL,ioos:station:DISL:MBLA:1,2017-05-01T21:00:00Z,30.4367,-88.0117,14.2,3.96,183.9,-999.0,'1111122,1111122,1111122' 
DISL,ioos:station:DISL:MBLA:1,2017-05-01T21:30:00Z,30.4367,-88.0117,14.2,4.18,199.3,-999.0,'1111122,1111122,1111122' 
DISL,ioos:station:DISL:MBLA:1,2017-05-01T22:00:00Z,30.4367,-88.0117,14.2,5.24,210.2,-999.0,'1111122,1111122,1111122' 
DISL,ioos:station:DISL:MBLA:1,2017-05-01T22:30:00Z,30.4367,-88.0117,14.2,6.35,214.4,-999.0,'1111122,1111122,1111122' 
DISL,ioos:station:DISL:MBLA:1,2017-05-01T23:00:00Z,30.4367,-88.0117,14.2,6.4,235.2,-999.0,'1111122,1111122,1111122' 
DISL,ioos:station:DISL:MBLA:1,2017-05-01T23:30:00Z,30.4367,-88.0117,14.2,6.65,236.7,-999.0,'1111122,1111122,1111122' 
DISL,ioos:station:DISL:MBLA:1,2017-05-02T00:00:00Z,30.4367,-88.0117,14.2,7.04,240.5,-999.0,'1111122,1111122,1111122' 
DISL,ioos:station:DISL:MBLA:1,2017-05-02T00:30:00Z,30.4367,-88.0117,14.2,6.45,242.4,-999.0,'1111122,1111122,1111122' 
DISL,ioos:station:DISL:MBLA:1,2017-05-02T01:00:00Z,30.4367,-88.0117,14.2,6.13,239.2,-999.0,'1111122,1111122,1111122' 
DISL,ioos:station:DISL:MBLA:1,2017-05-02T01:30:00Z,30.4367,-88.0117,14.2,6.2,240.8,-999.0,'1111122,1111122,1111122' 
DISL,ioos:station:DISL:MBLA:1,2017-05-02T02:00:00Z,30.4367,-88.0117,14.2,6.32,255.8,-999.0,'1111122,1111122,1111122' 
DISL,ioos:station:DISL:MBLA:1,2017-05-02T02:30:00Z,30.4367,-88.0117,14.2,6.45,262.9,-999.0,'1111122,1111122,1111122' 
DISL,ioos:station:DISL:MBLA:1,2017-05-02T03:00:00Z,30.4367,-88.0117,14.2,6.88,267.5,-999.0,'1111122,1111122,1111122' 
DISL,ioos:station:DISL:MBLA:1,2017-05-02T03:30:00Z,30.4367,-88.0117,14.2,6.22,262.8,-999.0,'1111122,1111122,1111122' 
DISL,ioos:station:DISL:MBLA:1,2017-05-02T04:00:00Z,30.4367,-88.0117,14.2,5.54,257.3,-999.0,'1111122,1111122,1111122' 
DISL,ioos:station:DISL:MBLA:1,2017-05-02T04:30:00Z,30.4367,-88.0117,14.2,5.24,263.7,-999.0,'1111122,1111122,1111122' 
DISL,ioos:station:DISL:MBLA:1,2017-05-02T05:00:00Z,30.4367,-88.0117,14.2,4.38,263.3,-999.0,'1111122,1111122,1111122' 
DISL,ioos:station:DISL:MBLA:1,2017-05-02T05:30:00Z,30.4367,-88.0117,14.2,3.7,264.6,-999.0,'1111122,1111122,1111122' 
DISL,ioos:station:DISL:MBLA:1,2017-05-02T06:00:00Z,30.4367,-88.0117,14.2,2.67,261.4,-999.0,'1111122,1111122,1111122' 
DISL,ioos:station:DISL:MBLA:1,2017-05-02T06:30:00Z,30.4367,-88.0117,14.2,2.77,279.8,-999.0,'1111122,1111122,1111122' 
DISL,ioos:station:DISL:MBLA:1,2017-05-02T07:00:00Z,30.4367,-88.0117,14.2,2.47,298.3,-999.0,'1111122,1111122,1111122' 
DISL,ioos:station:DISL:MBLA:1,2017-05-02T07:30:00Z,30.4367,-88.0117,14.2,2.57,327.4,-999.0,'1111122,1111122,1111122' 
DISL,ioos:station:DISL:MBLA:1,2017-05-02T08:00:00Z,30.4367,-88.0117,14.2,3.08,330.4,-999.0,'1111122,1111122,1111122' 
DISL,ioos:station:DISL:MBLA:1,2017-05-02T08:30:00Z,30.4367,-88.0117,14.2,2.2,344.8,-999.0,'1111122,1111122,1111122' 
DISL,ioos:station:DISL:MBLA:1,2017-05-02T09:00:00Z,30.4367,-88.0117,14.2,2.28,349.9,-999.0,'1111122,1111122,1111122' 
DISL,ioos:station:DISL:MBLA:1,2017-05-02T09:30:00Z,30.4367,-88.0117,14.2,2.13,2.136,-999.0,'1111122,1111122,1111122' 
DISL,ioos:station:DISL:MBLA:1,2017-05-02T10:00:00Z,30.4367,-88.0117,14.2,1.67,24.73,-999.0,'1111122,1111122,1111122' 
DISL,ioos:station:DISL:MBLA:1,2017-05-02T10:30:00Z,30.4367,-88.0117,14.2,1.63,44.17,-999.0,'1111122,1111122,1111122' 
DISL,ioos:station:DISL:MBLA:1,2017-05-02T11:00:00Z,30.4367,-88.0117,14.2,1.45,42.86,-999.0,'1111122,1111122,1111122' 
DISL,ioos:station:DISL:MBLA:1,2017-05-02T11:30:00Z,30.4367,-88.0117,14.2,2.4,42.4,-999.0,'1111122,1111122,1111122' 
DISL,ioos:station:DISL:MBLA:1,2017-05-02T12:00:00Z,30.4367,-88.0117,14.2,2.33,65.88,-999.0,'1111122,1111122,1111122' 
DISL,ioos:station:DISL:MBLA:1,2017-05-02T12:30:00Z,30.4367,-88.0117,14.2,2.21,85.2,-999.0,'1111122,1111122,1111122' 
DISL,ioos:station:DISL:MBLA:1,2017-05-02T13:00:00Z,30.4367,-88.0117,14.2,2.88,98.7,-999.0,'1111122,1111122,1111122' 
DISL,ioos:station:DISL:MBLA:1,2017-05-02T13:30:00Z,30.4367,-88.0117,14.2,2.54,90.2,-999.0,'1111122,1111122,1111122' 
DISL,ioos:station:DISL:MBLA:1,2017-05-02T14:00:00Z,30.4367,-88.0117,14.2,1.75,86.4,-999.0,'1111122,1111122,1111122' 
DISL,ioos:station:DISL:MBLA:1,2017-05-02T14:30:00Z,30.4367,-88.0117,14.2,1.46,89.3,-999.0,'1111122,1111122,1111122' 
DISL,ioos:station:DISL:MBLA:1,2017-05-02T15:00:00Z,30.4367,-88.0117,14.2,1.33,100.4,-999.0,'1111122,1111122,1111122' 
DISL,ioos:station:DISL:MBLA:1,2017-05-02T15:30:00Z,30.4367,-88.0117,14.2,1.27,147.7,-999.0,'1111122,1111122,1111122' 
DISL,ioos:station:DISL:MBLA:1,2017-05-02T16:00:00Z,30.4367,-88.0117,14.2,1.73,166.9,-999.0,'1111122,1111122,1111122' 
DISL,ioos:station:DISL:MBLA:1,2017-05-02T16:30:00Z,30.4367,-88.0117,14.2,1.25,172.4,-999.0,'1111122,1111122,1111122' 
DISL,ioos:station:DISL:MBLA:1,2017-05-02T17:00:00Z,30.4367,-88.0117,14.2,1.67,181.6,-999.0,'1111122,1111122,1111122' 
DISL,ioos:station:DISL:MBLA:1,2017-05-02T17:30:00Z,30.4367,-88.0117,14.2,1.55,201.5,-999.0,'1111122,1111122,1111122' 
DISL,ioos:station:DISL:MBLA:1,2017-05-02T18:00:00Z,30.4367,-88.0117,14.2,1.14,205.1,-999.0,'1111122,1111122,1111122' 
DISL,ioos:station:DISL:MBLA:1,2017-05-02T18:30:00Z,30.4367,-88.0117,14.2,2.12,186.8,-999.0,'1111122,1111122,1111122' 
DISL,ioos:station:DISL:MBLA:1,2017-05-02T19:00:00Z,30.4367,-88.0117,14.2,3.94,184.5,-999.0,'1111122,1111122,1111122' 
DISL,ioos:station:DISL:MBLA:1,2017-05-02T19:30:00Z,30.4367,-88.0117,14.2,5.13,186.5,-999.0,'1111122,1111122,1111122' 
DISL,ioos:station:DISL:MBLA:1,2017-05-02T20:00:00Z,30.4367,-88.0117,14.2,5.95,187.2,-999.0,'1111122,1111122,1111122' 
DISL,ioos:station:DISL:MBLA:1,2017-05-02T20:30:00Z,30.4367,-88.0117,14.2,5.31,186.9,-999.0,'1111122,1111122,1111122' 
DISL,ioos:station:DISL:MBLA:1,2017-05-02T21:00:00Z,30.4367,-88.0117,14.2,5.37,191.0,-999.0,'1111122,1111122,1111122' 
DISL,ioos:station:DISL:MBLA:1,2017-05-02T21:30:00Z,30.4367,-88.0117,14.2,5.4,199.1,-999.0,'1111122,1111122,1111122' 
DISL,ioos:station:DISL:MBLA:1,2017-05-02T22:00:00Z,30.4367,-88.0117,14.2,5.5,213.5,-999.0,'1111122,1111122,1111122' 
DISL,ioos:station:DISL:MBLA:1,2017-05-02T22:30:00Z,30.4367,-88.0117,14.2,5.27,209.8,-999.0,'1111122,1111122,1111122' 
DISL,ioos:station:DISL:MBLA:1,2017-05-02T23:00:00Z,30.4367,-88.0117,14.2,5.24,207.0,-999.0,'1111122,1111122,1111122' 
DISL,ioos:station:DISL:MBLA:1,2017-05-02T23:30:00Z,30.4367,-88.0117,14.2,5.29,208.7,-999.0,'1111122,1111122,1111122' 
DISL,ioos:station:DISL:MBLA:1,2017-05-03T00:00:00Z,30.4367,-88.0117,14.2,5.57,214.2,-999.0,'1111122,1111122,1111122' 
DISL,ioos:station:DISL:MBLA:1,2017-05-03T00:30:00Z,30.4367,-88.0117,14.2,4.46,231.6,-999.0,'1111122,1111122,1111122' 
DISL,ioos:station:DISL:MBLA:1,2017-05-03T01:00:00Z,30.4367,-88.0117,14.2,4.34,241.2,-999.0,'1111122,1111122,1111122' 
DISL,ioos:station:DISL:MBLA:1,2017-05-03T01:30:00Z,30.4367,-88.0117,14.2,4.25,225.4,-999.0,'1111122,1111122,1111122' 
DISL,ioos:station:DISL:MBLA:1,2017-05-03T02:00:00Z,30.4367,-88.0117,14.2,4.04,228.0,-999.0,'1111122,1111122,1111122' 
DISL,ioos:station:DISL:MBLA:1,2017-05-03T02:30:00Z,30.4367,-88.0117,14.2,3.64,225.4,-999.0,'1111122,1111122,1111122' 
DISL,ioos:station:DISL:MBLA:1,2017-05-03T03:00:00Z,30.4367,-88.0117,14.2,4.41,218.6,-999.0,'1111122,1111122,1111122' 
DISL,ioos:station:DISL:MBLA:1,2017-05-03T03:30:00Z,30.4367,-88.0117,14.2,3.7,204.2,-999.0,'1111122,1111122,1111122' 
DISL,ioos:station:DISL:MBLA:1,2017-05-03T04:00:00Z,30.4367,-88.0117,14.2,3.3,209.0,-999.0,'1111122,1111122,1111122' 
DISL,ioos:station:DISL:MBLA:1,2017-05-03T04:30:00Z,30.4367,-88.0117,14.2,3.53,200.0,-999.0,'1111122,1111122,1111122' 
DISL,ioos:station:DISL:MBLA:1,2017-05-03T05:00:00Z,30.4367,-88.0117,14.2,3.92,196.0,-999.0,'1111122,1111122,1111122' 
DISL,ioos:station:DISL:MBLA:1,2017-05-03T05:30:00Z,30.4367,-88.0117,14.2,3.68,192.1,-999.0,'1111122,1111122,1111122' 
DISL,ioos:station:DISL:MBLA:1,2017-05-03T06:00:00Z,30.4367,-88.0117,14.2,3.1,190.3,-999.0,'1111122,1111122,1111122' 
DISL,ioos:station:DISL:MBLA:1,2017-05-03T06:30:00Z,30.4367,-88.0117,14.2,3.75,201.9,-999.0,'1111122,1111122,1111122' 
DISL,ioos:station:DISL:MBLA:1,2017-05-03T07:00:00Z,30.4367,-88.0117,14.2,2.12,222.7,-999.0,'1111122,1111122,1111122' 
DISL,ioos:station:DISL:MBLA:1,2017-05-03T07:30:00Z,30.4367,-88.0117,14.2,1.12,237.6,-999.0,'1111122,1111122,1111122' 
DISL,ioos:station:DISL:MBLA:1,2017-05-03T08:00:00Z,30.4367,-88.0117,14.2,0.83,302.6,-999.0,'1111122,1111122,1111122' 
DISL,ioos:station:DISL:MBLA:1,2017-05-03T08:30:00Z,30.4367,-88.0117,14.2,0.04,284.2,-999.0,'1111122,1111122,1111122' 
DISL,ioos:station:DISL:MBLA:1,2017-05-03T09:00:00Z,30.4367,-88.0117,14.2,0.23,75.15,-999.0,'1111122,1111122,1111122' 
DISL,ioos:station:DISL:MBLA:1,2017-05-03T09:30:00Z,30.4367,-88.0117,14.2,3.02,77.82,-999.0,'1111122,1111122,1111122' 
DISL,ioos:station:DISL:MBLA:1,2017-05-03T10:00:00Z,30.4367,-88.0117,14.2,3.48,75.15,-999.0,'1111122,1111122,1111122' 
DISL,ioos:station:DISL:MBLA:1,2017-05-03T10:30:00Z,30.4367,-88.0117,14.2,3.89,80.2,-999.0,'1111122,1111122,1111122' 
DISL,ioos:station:DISL:MBLA:1,2017-05-03T11:00:00Z,30.4367,-88.0117,14.2,4.1,73.9,-999.0,'1111122,1111122,1111122' 
DISL,ioos:station:DISL:MBLA:1,2017-05-03T11:30:00Z,30.4367,-88.0117,14.2,3.84,88.6,-999.0,'1111122,1111122,1111122' 
DISL,ioos:station:DISL:MBLA:1,2017-05-03T12:00:00Z,30.4367,-88.0117,14.2,3.96,96.7,-999.0,'1111122,1111122,1111122' 
DISL,ioos:station:DISL:MBLA:1,2017-05-03T12:30:00Z,30.4367,-88.0117,14.2,4.37,104.1,-999.0,'1111122,1111122,1111122' 
DISL,ioos:station:DISL:MBLA:1,2017-05-03T13:00:00Z,30.4367,-88.0117,14.2,4.49,106.0,-999.0,'1111122,1111122,1111122' 
DISL,ioos:station:DISL:MBLA:1,2017-05-03T13:30:00Z,30.4367,-88.0117,14.2,5.06,101.9,-999.0,'1111122,1111122,1111122' 
DISL,ioos:station:DISL:MBLA:1,2017-05-03T14:00:00Z,30.4367,-88.0117,14.2,5.07,105.8,-999.0,'1111122,1111122,1111122' 
DISL,ioos:station:DISL:MBLA:1,2017-05-03T14:30:00Z,30.4367,-88.0117,14.2,6.3,109.4,-999.0,'1111122,1111122,1111122' 
DISL,ioos:station:DISL:MBLA:1,2017-05-03T15:00:00Z,30.4367,-88.0117,14.2,6.87,121.9,-999.0,'1111122,1111122,1111122' 
DISL,ioos:station:DISL:MBLA:1,2017-05-03T15:30:00Z,30.4367,-88.0117,14.2,6.35,123.9,-999.0,'1111122,1111122,1111122' 
DISL,ioos:station:DISL:MBLA:1,2017-05-03T16:00:00Z,30.4367,-88.0117,14.2,8.64,131.5,-999.0,'1111122,1111122,1111122' 
DISL,ioos:station:DISL:MBLA:1,2017-05-03T16:30:00Z,30.4367,-88.0117,14.2,8.97,134.2,-999.0,'1111122,1111122,1111122' 
DISL,ioos:station:DISL:MBLA:1,2017-05-03T17:00:00Z,30.4367,-88.0117,14.2,9.37,143.5,-999.0,'1111122,1111122,1111122' 
DISL,ioos:station:DISL:MBLA:1,2017-05-03T17:30:00Z,30.4367,-88.0117,14.2,9.7,136.6,-999.0,'1111122,1111122,1111122' 
DISL,ioos:station:DISL:MBLA:1,2017-05-03T18:00:00Z,30.4367,-88.0117,14.2,9.23,136.0,-999.0,'1111122,1111122,1111122' 
DISL,ioos:station:DISL:MBLA:1,2017-05-03T18:30:00Z,30.4367,-88.0117,14.2,7.95,139.7,-999.0,'1111122,1111122,1111122' 
DISL,ioos:station:DISL:MBLA:1,2017-05-03T19:00:00Z,30.4367,-88.0117,14.2,7.46,166.2,-999.0,'1111122,1111122,1111122' 
DISL,ioos:station:DISL:MBLA:1,2017-05-03T19:30:00Z,30.4367,-88.0117,14.2,9.74,165.1,-999.0,'1111122,1111122,1111122' 
DISL,ioos:station:DISL:MBLA:1,2017-05-03T20:00:00Z,30.4367,-88.0117,14.2,8.56,144.2,-999.0,'1111122,1111122,1111122' 
DISL,ioos:station:DISL:MBLA:1,2017-05-03T20:30:00Z,30.4367,-88.0117,14.2,9.3,116.6,-999.0,'1111122,1111122,1111122' 
DISL,ioos:station:DISL:MBLA:1,2017-05-03T21:00:00Z,30.4367,-88.0117,14.2,7.16,230.0,-999.0,'1111122,1111122,1111122' 
DISL,ioos:station:DISL:MBLA:1,2017-05-03T21:30:00Z,30.4367,-88.0117,14.2,6.61,278.9,-999.0,'1111122,1111122,1111122' 
DISL,ioos:station:DISL:MBLA:1,2017-05-03T22:00:00Z,30.4367,-88.0117,14.2,11.67,276.1,-999.0,'1111122,1111122,1111122' 
DISL,ioos:station:DISL:MBLA:1,2017-05-03T22:30:00Z,30.4367,-88.0117,14.2,10.8,276.9,-999.0,'1111122,1111122,1111122' 
DISL,ioos:station:DISL:MBLA:1,2017-05-03T23:00:00Z,30.4367,-88.0117,14.2,6.83,241.8,-999.0,'1111122,1111122,1111122' 
DISL,ioos:station:DISL:MBLA:1,2017-05-03T23:30:00Z,30.4367,-88.0117,14.2,8.15,122.4,-999.0,'1111122,1111122,1111122' 
DISL,ioos:station:DISL:MBLA:1,2017-05-04T00:00:00Z,30.4367,-88.0117,14.2,17.97,108.1,-999.0,'1111122,1111122,1111122' 
DISL,ioos:station:DISL:MBLA:1,2017-05-04T00:30:00Z,30.4367,-88.0117,14.2,17.64,122.0,-999.0,'1111122,1111122,1111122' 
DISL,ioos:station:DISL:MBLA:1,2017-05-04T01:00:00Z,30.4367,-88.0117,14.2,16.36,130.9,-999.0,'1111122,1111122,1111122' 
DISL,ioos:station:DISL:MBLA:1,2017-05-04T01:30:00Z,30.4367,-88.0117,14.2,14.63,130.6,-999.0,'1111122,1111122,1111122' 
DISL,ioos:station:DISL:MBLA:1,2017-05-04T02:00:00Z,30.4367,-88.0117,14.2,12.83,133.0,-999.0,'1111122,1111122,1111122' 
DISL,ioos:station:DISL:MBLA:1,2017-05-04T02:30:00Z,30.4367,-88.0117,14.2,11.21,130.5,-999.0,'1111122,1111122,1111122' 
DISL,ioos:station:DISL:MBLA:1,2017-05-04T03:00:00Z,30.4367,-88.0117,14.2,7.48,126.5,-999.0,'1111122,1111122,1111122' 
DISL,ioos:station:DISL:MBLA:1,2017-05-04T03:30:00Z,30.4367,-88.0117,14.2,7.22,337.2,-999.0,'1111122,1111122,1111122' 
DISL,ioos:station:DISL:MBLA:1,2017-05-04T04:00:00Z,30.4367,-88.0117,14.2,4.35,317.1,-999.0,'1111122,1111122,1111122' 
DISL,ioos:station:DISL:MBLA:1,2017-05-04T04:30:00Z,30.4367,-88.0117,14.2,4.87,34.62,-999.0,'1111122,1111122,1111122' 
DISL,ioos:station:DISL:MBLA:1,2017-05-04T05:00:00Z,30.4367,-88.0117,14.2,5.43,318.7,-999.0,'1111122,1111122,1111122' 
DISL,ioos:station:DISL:MBLA:1,2017-05-04T05:30:00Z,30.4367,-88.0117,14.2,6.54,118.6,-999.0,'1111122,1111122,1111122' 
DISL,ioos:station:DISL:MBLA:1,2017-05-04T06:00:00Z,30.4367,-88.0117,14.2,3.47,355.5,-999.0,'1111122,1111122,1111122' 
DISL,ioos:station:DISL:MBLA:1,2017-05-04T06:30:00Z,30.4367,-88.0117,14.2,4.39,334.2,-999.0,'1111122,1111122,1111122' 
DISL,ioos:station:DISL:MBLA:1,2017-05-04T07:00:00Z,30.4367,-88.0117,14.2,3.93,91.0,-999.0,'1111122,1111122,1111122' 
DISL,ioos:station:DISL:MBLA:1,2017-05-04T07:30:00Z,30.4367,-88.0117,14.2,6.54,60.63,-999.0,'1111122,1111122,1111122' 
DISL,ioos:station:DISL:MBLA:1,2017-05-04T08:00:00Z,30.4367,-88.0117,14.2,9.42,66.33,-999.0,'1111122,1111122,1111122' 
DISL,ioos:station:DISL:MBLA:1,2017-05-04T08:30:00Z,30.4367,-88.0117,14.2,6.43,55.68,-999.0,'1111122,1111122,1111122' 
DISL,ioos:station:DISL:MBLA:1,2017-05-04T09:00:00Z,30.4367,-88.0117,14.2,3.97,88.6,-999.0,'1111122,1111122,1111122' 
DISL,ioos:station:DISL:MBLA:1,2017-05-04T09:30:00Z,30.4367,-88.0117,14.2,3.98,68.24,-999.0,'1111122,1111122,1111122' 
DISL,ioos:station:DISL:MBLA:1,2017-05-04T10:00:00Z,30.4367,-88.0117,14.2,7.65,75.99,-999.0,'1111122,1111122,1111122' 
DISL,ioos:station:DISL:MBLA:1,2017-05-04T10:30:00Z,30.4367,-88.0117,14.2,8.05,96.5,-999.0,'1111122,1111122,1111122' 
DISL,ioos:station:DISL:MBLA:1,2017-05-04T11:00:00Z,30.4367,-88.0117,14.2,8.58,107.9,-999.0,'1111122,1111122,1111122' 
DISL,ioos:station:DISL:MBLA:1,2017-05-04T11:30:00Z,30.4367,-88.0117,14.2,14.06,119.8,-999.0,'1111122,1111122,1111122' 
DISL,ioos:station:DISL:MBLA:1,2017-05-04T12:00:00Z,30.4367,-88.0117,14.2,19.25,128.2,-999.0,'1111122,1111122,1111122' 
DISL,ioos:station:DISL:MBLA:1,2017-05-04T12:30:00Z,30.4367,-88.0117,14.2,16.79,134.9,-999.0,'1111122,1111122,1111122' 
DISL,ioos:station:DISL:MBLA:1,2017-05-04T13:00:00Z,30.4367,-88.0117,14.2,9.29,137.6,-999.0,'1111122,1111122,1111122' 
DISL,ioos:station:DISL:MBLA:1,2017-05-04T13:30:00Z,30.4367,-88.0117,14.2,7.39,148.6,-999.0,'1111122,1111122,1111122' 
DISL,ioos:station:DISL:MBLA:1,2017-05-04T14:00:00Z,30.4367,-88.0117,14.2,7.7,159.8,-999.0,'1111122,1111122,1111122' 
DISL,ioos:station:DISL:MBLA:1,2017-05-04T14:30:00Z,30.4367,-88.0117,14.2,8.21,165.7,-999.0,'1111122,1111122,1111122' 
DISL,ioos:station:DISL:MBLA:1,2017-05-04T15:00:00Z,30.4367,-88.0117,14.2,9.58,209.8,-999.0,'1111122,1111122,1111122' 
DISL,ioos:station:DISL:MBLA:1,2017-05-04T15:30:00Z,30.4367,-88.0117,14.2,9.35,221.7,-999.0,'1111122,1111122,1111122' 
DISL,ioos:station:DISL:MBLA:1,2017-05-04T16:00:00Z,30.4367,-88.0117,14.2,8.59,235.4,-999.0,'1111122,1111122,1111122' 
DISL,ioos:station:DISL:MBLA:1,2017-05-04T16:30:00Z,30.4367,-88.0117,14.2,8.48,259.5,-999.0,'1111122,1111122,1111122' 
DISL,ioos:station:DISL:MBLA:1,2017-05-04T17:00:00Z,30.4367,-88.0117,14.2,10.05,257.2,-999.0,'1111122,1111122,1111122' 
DISL,ioos:station:DISL:MBLA:1,2017-05-04T17:30:00Z,30.4367,-88.0117,14.2,7.09,242.0,-999.0,'1111122,1111122,1111122' 
DISL,ioos:station:DISL:MBLA:1,2017-05-04T18:00:00Z,30.4367,-88.0117,14.2,7.67,233.2,-999.0,'1111122,1111122,1111122' 
DISL,ioos:station:DISL:MBLA:1,2017-05-04T18:30:00Z,30.4367,-88.0117,14.2,7.52,222.0,-999.0,'1111122,1111122,1111122' 
DISL,ioos:station:DISL:MBLA:1,2017-05-04T19:00:00Z,30.4367,-88.0117,14.2,8.43,219.3,-999.0,'1111122,1111122,1111122' 
DISL,ioos:station:DISL:MBLA:1,2017-05-04T19:30:00Z,30.4367,-88.0117,14.2,8.56,205.4,-999.0,'1111122,1111122,1111122' 
DISL,ioos:station:DISL:MBLA:1,2017-05-04T20:00:00Z,30.4367,-88.0117,14.2,12.92,294.1,-999.0,'1111122,1111122,1111122' 
DISL,ioos:station:DISL:MBLA:1,2017-05-04T20:30:00Z,30.4367,-88.0117,14.2,10.42,292.3,-999.0,'1111122,1111122,1111122' 
DISL,ioos:station:DISL:MBLA:1,2017-05-04T21:00:00Z,30.4367,-88.0117,14.2,12.36,288.5,-999.0,'1111122,1111122,1111122' 
DISL,ioos:station:DISL:MBLA:1,2017-05-04T21:30:00Z,30.4367,-88.0117,14.2,12.34,295.5,-999.0,'1111122,1111122,1111122' 
DISL,ioos:station:DISL:MBLA:1,2017-05-04T22:00:00Z,30.4367,-88.0117,14.2,11.95,293.0,-999.0,'1111122,1111122,1111122' 
DISL,ioos:station:DISL:MBLA:1,2017-05-04T22:30:00Z,30.4367,-88.0117,14.2,12.48,287.7,-999.0,'1111122,1111122,1111122' 
DISL,ioos:station:DISL:MBLA:1,2017-05-04T23:00:00Z,30.4367,-88.0117,14.2,14.29,298.2,-999.0,'1111122,1111122,1111122' 
DISL,ioos:station:DISL:MBLA:1,2017-05-04T23:30:00Z,30.4367,-88.0117,14.2,14.27,295.9,-999.0,'1111122,1111122,1111122' 
DISL,ioos:station:DISL:MBLA:1,2017-05-05T00:00:00Z,30.4367,-88.0117,14.2,13.38,295.1,-999.0,'1111122,1111122,1111122' 
DISL,ioos:station:DISL:MBLA:1,2017-05-05T00:30:00Z,30.4367,-88.0117,14.2,14.56,295.3,-999.0,'1111122,1111122,1111122' 
DISL,ioos:station:DISL:MBLA:1,2017-05-05T01:00:00Z,30.4367,-88.0117,14.2,11.62,297.4,-999.0,'1111122,1111122,1111122' 
DISL,ioos:station:DISL:MBLA:1,2017-05-05T01:30:00Z,30.4367,-88.0117,14.2,13.35,300.9,-999.0,'1111122,1111122,1111122' 
DISL,ioos:station:DISL:MBLA:1,2017-05-05T02:00:00Z,30.4367,-88.0117,14.2,10.89,293.1,-999.0,'1111122,1111122,1111122' 
DISL,ioos:station:DISL:MBLA:1,2017-05-05T02:30:00Z,30.4367,-88.0117,14.2,14.51,297.1,-999.0,'1111122,1111122,1111122' 
DISL,ioos:station:DISL:MBLA:1,2017-05-05T03:00:00Z,30.4367,-88.0117,14.2,13.42,297.1,-999.0,'1111122,1111122,1111122' 
DISL,ioos:station:DISL:MBLA:1,2017-05-05T03:30:00Z,30.4367,-88.0117,14.2,13.55,295.4,-999.0,'1111122,1111122,1111122' 
DISL,ioos:station:DISL:MBLA:1,2017-05-05T04:00:00Z,30.4367,-88.0117,14.2,13.33,306.2,-999.0,'1111122,1111122,1111122' 
DISL,ioos:station:DISL:MBLA:1,2017-05-05T04:30:00Z,30.4367,-88.0117,14.2,15.83,307.3,-999.0,'1111122,1111122,1111122' 